Regional Weather Roundup
Issued by NWS Binghamton, NY

Home | Current Version | Previous Version | Text Only | Print | Product List | Glossary On
Versions: 1 2 3 4 5 6 7 8 9 10 11 12 13 14 15 16 17 18 19 20 21 22 23 24 25 26 27 28 29 30 31 32 33 34 35 36 37 38 39 40 41 42 43 44 45 46 47 48 49 50
000
ASUS41 KBGM 220610
RWRBGM

REGIONAL WEATHER ROUNDUP
NATIONAL WEATHER SERVICE BINGHAMTON NY
200 AM EDT FRI SEP 22 2017

Note: "fair" indicates few or no clouds below 12,000 feet with no
significant weather and/or obstructions to visibility.

* = Station(s) that does not report precipitation, such as rain,
snow, etc, also no thunder or fog.

NYZ009-015>018-022>025-036-037-044>046-055>057-062-220700
...Central New York...

CITY           SKY/WX    TMP DP  RH WIND       PRES   REMARKS
Binghamton     CLOUDY    61  60  97 N5        30.12F
Cortland       FAIR      55  55 100 CALM      30.13F
Dansville      CLOUDY    58  56  93 CALM      30.15S
Elmira         CLOUDY    58  58 100 SW3       30.12S
Seneca Falls   CLEAR     61  59  94 W6        30.12F FOG
Ithaca         FOG       59  59 100 CALM      30.14S VSB 1/4
Hamilton       CLOUDY    54  54 100 CALM      30.13F VSB 0
Hornell        CLOUDY    55  55 100 CALM      30.19S
Monticello     MOCLDY    61  55  81 NW5       30.11S
Oneonta        CLEAR     61 N/A N/A NE5       30.13F
Penn Yan       CLOUDY    60  57  89 W3        30.14R
Rome           CLOUDY    58  56  93 CALM      30.12R
Sidney         FOG      N/A N/A N/A CALM      30.11F VSB 1/2
Syracuse       MOCLDY    60  59  96 CALM      30.09F
$$

PAZ038>040-043-044-047-048-072-220700
...Northeast Pennsylvania...

CITY           SKY/WX    TMP DP  RH WIND       PRES   REMARKS
Hazleton         N/A     63  59  88 CALM      30.13F
Scranton       CLOUDY    62  60  93 S3        30.08F
$$
&&
KEY
WCI = Wind Chill Index
VSB = Visibility
HX  = Heat Index
$$



USA.gov is the U.S. government's official web portal to all federal, state and local government web resources and services.